| time (UTC) | temp F | wind direction | speed MPH | gust MPH | rain 1hr in | rain 24hr in | rain mn in | humidity % | barometer mb |
| 20260901063050 | 77 | 72 | 0.0 | 0.0 | 0.00 | 0.00 | 0.00 | 55 | 1012.4 |
| 20260901061537 | 75 | 71 | 0.0 | 0.0 | 0.00 | 0.00 | 0.00 | 63 | 1012.4 |
| 20260901060034 | 74 | 71 | 0.0 | 0.0 | 0.00 | 0.00 | 0.00 | 60 | 1012.2 |
| 20260901054534 | 73 | 76 | 0.0 | 0.0 | 0.00 | 0.00 | 0.00 | 63 | 1012.0 |
| 20260901053030 | 72 | 76 | 0.0 | 0.0 | 0.00 | 0.00 | 0.00 | 65 | 1012.0 |
| 20260901051529 | 72 | 76 | 0.0 | 0.0 | 0.00 | 0.00 | 0.00 | 64 | 1011.8 |
| 20260901050027 | 71 | 76 | 0.0 | 0.0 | 0.00 | 0.00 | 0.00 | 66 | 1011.6 |
| 20260901044533 | 71 | 76 | 0.0 | 0.0 | 0.00 | 0.00 | 0.00 | 66 | 1011.6 |
| 20260901043024 | 72 | 76 | 0.0 | 0.0 | 0.00 | 0.00 | 0.00 | 64 | 1011.4 |
| 20260901041528 | 71 | 76 | 0.0 | 0.0 | 0.00 | 0.00 | 0.00 | 64 | 1011.2 |
| 20260901040024 | 71 | 76 | 0.0 | 1.0 | 0.00 | 0.00 | 0.00 | 68 | 1011.0 |
| 20260901034534 | 71 | 57 | 0.0 | 0.0 | 0.00 | 0.00 | 0.00 | 70 | 1011.0 |
| 20260901033025 | 71 | 57 | 0.0 | 0.0 | 0.00 | 0.00 | 0.00 | 69 | 1010.8 |
| 20260901031530 | 71 | 57 | 0.0 | 0.0 | 0.00 | 0.00 | 0.00 | 69 | 1010.8 |
| 20260901030018 | 71 | 57 | 0.0 | 0.0 | 0.00 | 0.00 | 0.00 | 68 | 1010.8 |
| 20260901024516 | 71 | 57 | 0.0 | 0.0 | 0.00 | 0.00 | 0.00 | 68 | 1010.9 |
| 20260901023016 | 71 | 57 | 0.0 | 0.0 | 0.00 | 0.00 | 0.00 | 67 | 1010.9 |
| 20260901021514 | 71 | 57 | 0.0 | 0.0 | 0.00 | 0.00 | 0.00 | 66 | 1010.8 |
| 20260901020013 | 72 | 57 | 0.0 | 0.0 | 0.00 | 0.00 | 0.00 | 67 | 1010.7 |
| 20260901014513 | 71 | 55 | 0.0 | 1.0 | 0.00 | 0.00 | 0.00 | 66 | 1010.7 |
| 20260901013011 | 72 | 65 | 0.0 | 4.0 | 0.00 | 0.00 | 0.00 | 65 | 1010.7 |
| 20260901011509 | 72 | 78 | 0.0 | 4.0 | 0.00 | 0.00 | 0.00 | 63 | 1010.5 |
| 20260901010019 | 73 | 76 | 0.0 | 4.0 | 0.00 | 0.00 | 0.00 | 62 | 1010.6 |
| 20260901004516 | 73 | 78 | 0.0 | 4.0 | 0.00 | 0.00 | 0.00 | 63 | 1010.6 |
| 20260901003006 | 73 | 68 | 0.0 | 6.0 | 0.00 | 0.00 | 0.00 | 65 | 1010.6 |
| 20260901001503 | 73 | 94 | 0.0 | 6.0 | 0.00 | 0.00 | 0.00 | 70 | 1010.6 |
| 20260901000105 | 73 | 50 | 0.0 | 2.0 | 0.00 | 0.00 | 0.00 | 75 | 1010.4 |
| 20260831234628 | 74 | 57 | 0.0 | 4.0 | 0.00 | 0.00 | 0.00 | 75 | 1010.3 |
| 20260831233059 | 74 | 80 | 0.0 | 2.0 | 0.00 | 0.00 | 0.00 | 75 | 1010.3 |
| 20260831231552 | 74 | 63 | 0.0 | 1.0 | 0.00 | 0.00 | 0.00 | 75 | 1010.0 |
| 20260831230047 | 74 | 95 | 0.0 | 0.0 | 0.00 | 0.00 | 0.00 | 75 | 1009.9 |
| 20260831224543 | 74 | 91 | 0.0 | 0.0 | 0.00 | 0.00 | 0.00 | 76 | 1009.6 |
| 20260831223051 | 74 | 136 | 0.0 | 0.0 | 0.00 | 0.00 | 0.00 | 76 | 1009.3 |
| 20260831221538 | 74 | 136 | 0.0 | 0.0 | 0.00 | 0.00 | 0.00 | 76 | 1009.1 |
| 20260831220036 | 74 | 136 | 0.0 | 0.0 | 0.00 | 0.00 | 0.00 | 75 | 1009.0 |
| 20260831214549 | 75 | 136 | 0.0 | 0.0 | 0.00 | 0.00 | 0.00 | 75 | 1009.0 |
| 20260831213036 | 75 | 136 | 0.0 | 0.0 | 0.00 | 0.00 | 0.00 | 74 | 1009.1 |
| 20260831211536 | 76 | 136 | 0.0 | 0.0 | 0.00 | 0.00 | 0.00 | 73 | 1008.9 |
| 20260831210038 | 76 | 136 | 0.0 | 0.0 | 0.00 | 0.00 | 0.00 | 73 | 1008.8 |
| 20260831204534 | 77 | 136 | 0.0 | 0.0 | 0.00 | 0.00 | 0.00 | 71 | 1008.6 |
| 20260831203033 | 77 | 136 | 0.0 | 0.0 | 0.00 | 0.00 | 0.00 | 70 | 1008.4 |
| 20260831201533 | 77 | 136 | 0.0 | 0.0 | 0.00 | 0.00 | 0.00 | 71 | 1008.3 |
| 20260831200033 | 78 | 136 | 0.0 | 0.0 | 0.00 | 0.00 | 0.00 | 71 | 1008.1 |
| 20260831194532 | 78 | 136 | 0.0 | 0.0 | 0.00 | 0.00 | 0.00 | 70 | 1008.0 |
| 20260831193100 | 79 | 146 | 0.0 | 0.0 | 0.00 | 0.00 | 0.00 | 69 | 1007.8 |
| 20260831191531 | 79 | 204 | 0.0 | 0.0 | 0.00 | 0.00 | 0.00 | 67 | 1007.5 |
| 20260831190031 | 79 | 205 | 0.0 | 0.0 | 0.00 | 0.00 | 0.00 | 66 | 1007.2 |
| 20260831184529 | 80 | 205 | 0.0 | 0.0 | 0.00 | 0.00 | 0.00 | 67 | 1007.1 |
| 20260831183030 | 80 | 205 | 0.0 | 0.0 | 0.00 | 0.00 | 0.00 | 66 | 1006.8 |
| 20260831181544 | 80 | 205 | 0.0 | 0.0 | 0.00 | 0.00 | 0.00 | 65 | 1006.7 |
| 20260831180036 | 81 | 205 | 0.0 | 0.0 | 0.00 | 0.00 | 0.00 | 65 | 1006.6 |
| 20260831174528 | 82 | 205 | 0.0 | 1.0 | 0.00 | 0.00 | 0.00 | 64 | 1006.4 |
| 20260831173027 | 83 | 214 | 0.0 | 1.0 | 0.00 | 0.00 | 0.00 | 63 | 1006.5 |
| 20260831171526 | 84 | 221 | 0.0 | 4.0 | 0.00 | 0.00 | 0.00 | 60 | 1006.6 |
| 20260831170025 | 85 | 221 | 0.0 | 4.0 | 0.00 | 0.00 | 0.00 | 57 | 1006.7 |
| 20260831164524 | 87 | 225 | 0.0 | 8.0 | 0.00 | 0.00 | 0.00 | 55 | 1006.7 |
| 20260831163026 | 88 | 220 | 0.0 | 5.0 | 0.00 | 0.00 | 0.00 | 53 | 1006.7 |
| 20260831161534 | 89 | 194 | 0.0 | 6.0 | 0.00 | 0.00 | 0.00 | 47 | 1007.0 |
| 20260831160020 | 89 | 221 | 0.0 | 5.0 | 0.00 | 0.00 | 0.00 | 45 | 1007.0 |
| 20260831154518 | 90 | 259 | 1.0 | 7.0 | 0.00 | 0.00 | 0.00 | 44 | 1007.1 |
| 20260831153018 | 90 | 193 | 0.0 | 3.0 | 0.00 | 0.00 | 0.00 | 45 | 1007.1 |
| 20260831151517 | 91 | 204 | 0.0 | 3.0 | 0.00 | 0.00 | 0.00 | 46 | 1007.1 |
| 20260831150015 | 91 | 215 | 0.0 | 5.0 | 0.00 | 0.00 | 0.00 | 44 | 1007.2 |
| 20260831144515 | 91 | 213 | 0.0 | 2.0 | 0.00 | 0.00 | 0.00 | 45 | 1007.3 |
| 20260831143016 | 91 | 216 | 0.0 | 4.0 | 0.00 | 0.00 | 0.00 | 44 | 1007.4 |
| 20260831141514 | 91 | 205 | 1.0 | 7.0 | 0.00 | 0.00 | 0.00 | 44 | 1007.3 |
| 20260831140012 | 91 | 207 | 0.0 | 4.0 | 0.00 | 0.00 | 0.00 | 43 | 1007.4 |
| 20260831134509 | 90 | 221 | 0.0 | 5.0 | 0.00 | 0.00 | 0.00 | 45 | 1007.5 |
| 20260831133007 | 91 | 216 | 0.0 | 2.0 | 0.00 | 0.00 | 0.00 | 43 | 1007.6 |
| 20260831131506 | 90 | 207 | 1.0 | 7.0 | 0.00 | 0.00 | 0.00 | 44 | 1007.8 |
| 20260831130005 | 90 | 265 | 0.0 | 6.0 | 0.00 | 0.00 | 0.00 | 44 | 1007.9 |
| 20260831124504 | 90 | 217 | 3.0 | 7.0 | 0.00 | 0.00 | 0.00 | 45 | 1008.0 |
| 20260831123001 | 90 | 232 | 1.0 | 5.0 | 0.00 | 0.00 | 0.00 | 46 | 1008.1 |
| 20260831121501 | 89 | 200 | 0.0 | 7.0 | 0.00 | 0.00 | 0.00 | 44 | 1008.2 |
| 20260831120100 | 89 | 252 | 3.0 | 8.0 | 0.00 | 0.00 | 0.00 | 44 | 1008.3 |
| 20260831114600 | 89 | 198 | 0.0 | 8.0 | 0.00 | 0.00 | 0.00 | 44 | 1008.4 |
| 20260831113059 | 89 | 219 | 1.0 | 6.0 | 0.00 | 0.00 | 0.00 | 44 | 1008.6 |
| 20260831111558 | 88 | 211 | 1.0 | 9.0 | 0.00 | 0.00 | 0.00 | 43 | 1008.6 |
| 20260831110057 | 89 | 96 | 0.0 | 4.0 | 0.00 | 0.00 | 0.00 | 44 | 1008.6 |
| 20260831104556 | 89 | 223 | 1.0 | 6.0 | 0.00 | 0.00 | 0.00 | 47 | 1008.7 |
| 20260831103055 | 87 | 257 | 0.0 | 8.0 | 0.00 | 0.00 | 0.00 | 47 | 1008.8 |
| 20260831101554 | 88 | 113 | 0.0 | 2.0 | 0.00 | 0.00 | 0.00 | 47 | 1008.7 |
| 20260831100106 | 87 | 167 | 0.0 | 2.0 | 0.00 | 0.00 | 0.00 | 49 | 1009.0 |
| 20260831094552 | 87 | 216 | 0.0 | 2.0 | 0.00 | 0.00 | 0.00 | 47 | 1009.0 |
| 20260831093057 | 87 | 134 | 0.0 | 1.0 | 0.00 | 0.00 | 0.00 | 49 | 1009.1 |
| 20260831091549 | 87 | 114 | 0.0 | 1.0 | 0.00 | 0.00 | 0.00 | 47 | 1009.2 |
| 20260831090056 | 85 | 219 | 0.0 | 0.0 | 0.00 | 0.00 | 0.00 | 50 | 1009.1 |
| 20260831084545 | 84 | 101 | 0.0 | 0.0 | 0.00 | 0.00 | 0.00 | 49 | 1009.2 |
| 20260831083101 | 85 | 91 | 0.0 | 0.0 | 0.00 | 0.00 | 0.00 | 47 | 1009.1 |
| 20260831081553 | 84 | 101 | 0.0 | 0.0 | 0.00 | 0.00 | 0.00 | 49 | 1009.0 |
| 20260831080107 | 83 | 172 | 0.0 | 0.0 | 0.00 | 0.00 | 0.00 | 49 | 1008.9 |
| 20260831074538 | 83 | 37 | 0.0 | 0.0 | 0.00 | 0.00 | 0.00 | 51 | 1008.9 |
| 20260831073035 | 82 | 327 | 0.0 | 0.0 | 0.00 | 0.00 | 0.00 | 51 | 1008.8 |
| 20260831071542 | 81 | 327 | 0.0 | 0.0 | 0.00 | 0.00 | 0.00 | 54 | 1008.8 |
| 20260831070031 | 81 | 327 | 0.0 | 0.0 | 0.00 | 0.00 | 0.00 | 52 | 1008.8 |
| 20260831064528 | 79 | 327 | 0.0 | 0.0 | 0.00 | 0.00 | 0.00 | 58 | 1008.7 |